1508565601.01,19651,14.19,73832.3,1.35,-10.09,-10.23,0,*78
1508565602.24,19652,14.19,73832.8,1.37,-10.01,-10.19,0,*78
1508565603.43,19653,14.19,73834.0,1.35,-10.05,-10.27,0,*72
1508565604.62,19654,14.25,73836.0,1.35,-9.97,-10.23,0,*42
1508565605.81,19655,14.19,73828.8,1.35,-9.97,-10.23,0,*43
1508565607.01,19656,14.19,73832.5,1.35,-9.97,-10.19,0,*49
1508565608.24,19657,14.19,73834.0,1.37,-10.01,-10.19,0,*7D
1508565609.44,19658,14.19,73832.0,1.35,-9.97,-10.27,0,*4A
1508565610.63,19659,14.25,73836.8,1.35,-10.05,-10.27,0,*78
1508565611.87,19660,14.19,73836.0,1.37,-10.15,-10.35,0,*72
1508565613.07,19661,14.25,73832.0,1.35,-10.27,-10.53,0,*70
1508565614.27,19662,14.19,73828.0,1.35,-10.23,-10.49,0,*7C
1508565615.47,19663,14.19,73824.3,1.35,-10.27,-10.53,0,*72
1508565616.7,19664,14.19,73824.3,1.35,-10.23,-10.41,0,*72
1508565617.94,19665,14.19,73830.3,1.37,-10.19,-10.35,0,*7B
1508565619.17,19666,14.19,73832.0,1.35,-10.23,-10.41,0,*70
1508565620.4,19667,14.25,73840.0,1.35,-10.23,-10.41,0,*71
1508565621.63,19668,14.19,73834.0,1.35,-10.27,-10.41,0,*7A
1508565622.87,19669,14.19,73838.3,1.37,-10.19,-10.35,0,*77
1508565624.08,19670,14.19,73840.3,1.35,-10.23,-10.35,0,*74
1508565625.28,19671,14.25,73842.8,1.35,-10.27,-10.27,0,*72
1508565626.49,19672,14.19,73842.3,1.35,-10.23,-10.35,0,*76
1508565627.72,19673,14.25,73846.5,1.37,-10.15,-10.19,0,*7E
1508565628.93,19674,14.25,73844.5,1.35,-10.19,-10.09,0,*76
1508565630.13,19675,14.19,73844.5,1.35,-10.23,-10.23,0,*76
1508565631.33,19676,14.25,73844.8,1.35,-10.27,-10.09,0,*79
1508565632.52,19677,14.19,73840.8,1.35,-10.23,-9.97,0,*43
1508565633.71,19678,14.25,73842.0,1.35,-10.09,-9.93,0,*40
1508565634.9,19679,14.19,73840.0,1.35,-10.05,-9.75,0,*45
1508565636.08,19680,14.19,73840.3,1.35,-10.05,-9.67,0,*40
1508565637.27,19681,14.19,73840.5,1.35,-10.05,-9.67,0,*41
1508565638.46,19682,14.19,73840.0,1.35,-10.05,-9.67,0,*42
1508565639.67,19683,14.25,73846.0,1.35,-10.05,-9.57,0,*40
1508565640.87,19684,14.19,73844.3,1.35,-9.97,-9.57,0,*74
1508565642.09,19685,14.25,73850.5,1.35,-9.79,-9.53,0,*71
1508565643.31,19686,14.19,73844.0,1.35,-9.67,-9.53,0,*7D
1508565644.51,19687,14.25,73848.0,1.35,-9.57,-9.71,0,*7F
1508565645.75,19688,14.19,73846.3,1.35,-9.53,-9.83,0,*79
1508565646.99,19689,14.25,73848.5,1.35,-9.41,-9.83,0,*7B
1508565648.24,19690,14.25,73850.0,1.37,-9.37,-10.05,0,*46
1508565649.46,19691,14.25,73850.0,1.35,-9.41,-10.23,0,*40
1508565650.69,19692,14.19,73844.8,1.35,-9.53,-10.27,0,*44
1508565651.89,19693,14.19,73844.0,1.35,-9.79,-10.35,0,*4E
1508565653.08,19694,14.19,73842.8,1.35,-9.93,-10.53,0,*4D
1508565654.27,19695,14.19,73842.3,1.35,-10.05,-10.49,0,*70
1508565655.49,19696,14.19,73840.0,1.35,-9.97,-10.41,0,*48
1508565656.71,19697,14.19,73842.3,1.35,-9.97,-10.41,0,*49
1508565657.91,19698,14.19,73842.8,1.35,-10.05,-10.49,0,*7D
1508565659.13,19699,14.25,73844.0,1.35,-10.09,-10.41,0,*78
1508565660.36,19700,14.25,73844.5,1.35,-10.09,-10.41,0,*79
1508565661.58,19701,14.19,73840.3,1.33,-10.23,-10.53,0,*75
1508565662.81,19702,14.19,73846.0,1.33,-10.23,-10.45,0,*71
1508565664.04,19703,14.25,73846.3,1.33,-10.23,-10.53,0,*77
1508565665.26,19704,14.19,73842.5,1.33,-10.27,-10.45,0,*73
1508565666.46,19705,14.25,73846.0,1.35,-10.23,-10.49,0,*7C
1508565667.66,19706,14.25,73846.0,1.35,-10.23,-10.49,0,*7F
1508565668.89,19707,14.25,73846.3,1.33,-10.27,-10.53,0,*77
1508565670.12,19708,14.25,73846.3,1.33,-10.27,-10.45,0,*7F
1508565671.35,19709,14.19,73844.3,1.33,-10.27,-10.53,0,*79
1508565672.57,19710,14.19,73844.5,1.33,-10.27,-10.45,0,*76
1508565673.78,19711,14.19,73842.5,1.31,-10.23,-10.45,0,*71
1508565675.0,19712,14.19,73840.5,1.33,-10.23,-10.45,0,*70
1508565676.21,19713,14.19,73844.0,1.31,-10.23,-10.31,0,*70
1508565677.44,19714,14.19,73844.0,1.33,-10.23,-10.45,0,*76
1508565678.66,19715,14.19,73842.8,1.33,-10.31,-10.53,0,*73
1508565679.89,19716,14.25,73848.0,1.33,-10.45,-10.53,0,*73
1508565681.11,19717,14.25,73842.8,1.33,-10.31,-10.53,0,*71
1508565682.35,19718,14.25,73842.8,1.33,-10.15,-10.31,0,*7C
1508565683.57,19719,14.25,73842.8,1.33,-10.23,-10.45,0,*7B
1508565684.78,19720,14.25,73844.8,1.31,-10.31,-10.57,0,*73
1508565685.99,19721,14.25,73842.0,1.31,-10.31,-10.57,0,*72
1508565687.25,19722,14.25,73836.5,1.31,-10.41,-10.67,0,*75
1508565688.53,19723,14.19,73834.8,1.33,-10.41,-10.67,0,*76
1508565689.74,19724,14.19,73836.8,1.31,-10.27,-10.57,0,*70
1508565690.94,19725,14.19,73840.0,1.31,-10.23,-10.53,0,*71
1508565692.14,19726,14.19,73838.8,1.31,-10.23,-10.53,0,*72
1508565693.37,19727,14.19,73838.5,1.33,-10.15,-10.45,0,*73
1508565694.58,19728,14.25,73840.3,1.31,-10.15,-10.53,0,*79
1508565695.81,19729,14.19,73842.3,1.33,-10.23,-10.53,0,*7F
1508565697.03,19730,14.19,73842.0,1.33,-10.23,-10.53,0,*77
1508565698.26,19731,14.25,73844.3,1.33,-10.31,-10.53,0,*75
1508565699.47,19732,14.19,73840.3,1.31,-10.31,-10.57,0,*70
1508565700.73,19733,14.19,73840.5,1.31,-10.41,-10.67,0,*75
1508565701.98,19734,14.25,73842.8,1.31,-10.41,-10.71,0,*75
1508565703.24,19735,14.19,73840.0,1.33,-10.41,-10.57,0,*72
1508565704.44,19736,14.19,73838.5,1.31,-10.31,-10.53,0,*70
1508565705.67,19737,14.25,73842.5,1.33,-10.31,-10.57,0,*77
1508565706.9,19738,14.19,73846.0,1.31,-10.41,-10.57,0,*7D
1508565708.13,19739,14.19,73844.3,1.33,-10.31,-10.57,0,*79
1508565709.33,19740,14.19,73844.5,1.31,-10.27,-10.45,0,*71
1508565710.54,19741,14.19,73846.0,1.31,-10.27,-10.53,0,*77
1508565711.74,19742,14.25,73848.5,1.31,-10.31,-10.53,0,*73
1508565712.95,19743,14.25,73848.3,1.31,-10.27,-10.45,0,*72
1508565714.2,19744,14.25,73848.5,1.33,-10.23,-10.41,0,*77
1508565715.44,19745,14.25,73844.0,1.31,-10.15,-10.41,0,*71
1508565716.65,19746,14.19,73840.5,1.31,-10.15,-10.31,0,*75
1508565717.88,19747,14.19,73842.5,1.33,-10.23,-10.31,0,*73
1508565719.09,19748,14.25,73844.5,1.31,-10.27,-10.31,0,*7A
1508565720.29,19749,14.25,73846.0,1.31,-10.23,-10.31,0,*7F
1508565721.5,19750,14.19,73840.8,1.31,-10.15,-10.23,0,*71
1508565722.7,19751,14.19,73844.3,1.31,-10.09,-10.09,0,*75
1508565723.91,19752,14.25,73846.3,1.33,-10.09,-10.09,0,*74
1508565725.15,19753,14.19,73842.5,1.33,-10.15,-10.01,0,*70
1508565726.34,19754,14.25,73846.3,1.31,-10.09,-9.97,0,*4F
1508565727.55,19755,14.19,73842.0,1.33,-10.09,-9.89,0,*43
1508565728.77,19756,14.19,73836.0,1.33,-10.01,-9.97,0,*47
1508565729.96,19757,14.19,73834.5,1.31,-10.01,-9.97,0,*44
1508565731.18,19758,14.25,73836.8,1.31,-10.01,-9.83,0,*4E
1508565732.39,19759,14.19,73834.8,1.33,-10.09,-9.89,0,*4F
1508565733.58,19760,14.19,73836.5,1.31,-9.97,-9.89,0,*78
1508565734.81,19761,14.19,73836.3,1.33,-9.97,-9.83,0,*71
1508565736.0,19762,14.19,73838.5,1.31,-9.97,-9.97,0,*75
1508565737.23,19763,14.25,73838.5,1.33,-10.15,-9.97,0,*44
1508565738.44,19764,14.19,73832.5,1.31,-10.09,-9.83,0,*49
1508565739.64,19765,14.19,73830.8,1.31,-10.01,-9.71,0,*4D
1508565740.85,19766,14.19,73836.8,1.31,-9.97,-9.61,0,*78
1508565742.06,19767,14.19,73842.5,1.31,-9.89,-9.61,0,*76
1508565743.27,19768,14.19,73840.3,1.31,-9.97,-9.61,0,*76
1508565744.48,19769,14.19,73840.3,1.31,-9.97,-9.61,0,*77
1508565745.69,19770,14.19,73840.3,1.31,-9.89,-9.57,0,*75
1508565746.92,19771,14.19,73846.8,1.31,-9.83,-9.57,0,*7E
1508565748.13,19772,14.19,73850.8,1.31,-9.97,-9.49,0,*77
1508565749.35,19773,14.19,73846.8,1.31,-10.01,-9.61,0,*4B
1508565750.57,19774,14.25,73850.0,1.31,-10.01,-9.57,0,*49
1508565751.8,19775,14.19,73846.3,1.33,-9.89,-9.37,0,*74
1508565753.01,19776,14.25,73850.0,1.31,-9.83,-9.27,0,*7E
1508565754.22,19777,14.25,73844.3,1.31,-9.83,-9.27,0,*7F
1508565755.46,19778,14.19,73844.0,1.31,-9.83,-9.15,0,*71
1508565756.65,19779,14.25,73850.8,1.31,-9.71,-9.05,0,*7C
1508565757.86,19780,14.19,73846.3,1.29,-9.67,-9.05,0,*74
1508565759.13,19781,14.25,73848.3,1.29,-9.53,-9.11,0,*77
1508565760.32,19782,14.25,73846.3,1.31,-9.31,-9.05,0,*7C
1508565761.51,19783,14.19,73844.3,1.31,-9.31,-9.19,0,*70
1508565762.76,19784,14.19,73842.0,1.29,-9.31,-9.37,0,*72
1508565763.98,19785,14.19,73846.3,1.31,-9.19,-9.45,0,*75
1508565765.19,19786,14.25,73842.5,1.31,-9.19,-9.57,0,*75
1508565766.39,19787,14.25,73846.0,1.31,-9.27,-9.71,0,*7D
1508565767.61,19788,14.19,73842.3,1.33,-9.31,-9.75,0,*73
1508565768.86,19789,14.25,73846.8,1.31,-9.37,-9.83,0,*7F
1508565770.1,19790,14.19,73842.0,1.29,-9.41,-10.05,0,*49
1508565771.35,19791,14.19,73840.0,1.29,-9.53,-10.15,0,*4A
1508565772.6,19792,14.19,73840.3,1.29,-9.61,-10.15,0,*48
1508565773.83,19793,14.19,73842.3,1.29,-9.67,-10.15,0,*4F
1508565775.06,19794,14.25,73846.0,1.29,-9.79,-10.19,0,*4B
1508565776.28,19795,14.19,73840.0,1.29,-9.89,-10.19,0,*45
1508565777.5,19796,14.25,73842.8,1.29,-10.01,-10.31,0,*74
1508565778.73,19797,14.25,73844.5,1.29,-10.01,-10.31,0,*75
1508565779.96,19798,14.19,73844.3,1.29,-10.01,-10.31,0,*7A
1508565781.16,19799,14.25,73846.3,1.27,-10.15,-10.49,0,*7F
1508565782.42,19800,14.25,73846.5,1.29,-10.19,-10.63,0,*7A
1508565783.67,19801,14.19,73842.5,1.29,-10.05,-10.63,0,*76
1508565784.93,19802,14.19,73842.8,1.29,-10.15,-10.71,0,*77
1508565786.18,19803,14.19,73840.8,1.29,-10.19,-10.71,0,*7A
1508565787.41,19804,14.19,73842.5,1.27,-10.27,-10.71,0,*7E
1508565788.66,19805,14.25,73842.5,1.29,-10.27,-10.63,0,*72
1508565789.9,19806,14.25,73844.8,1.27,-10.31,-10.63,0,*78
1508565791.15,19807,14.19,73838.3,1.29,-10.19,-10.71,0,*7E
1508565792.38,19808,14.19,73838.8,1.27,-10.35,-10.71,0,*71
1508565793.64,19809,14.19,73840.5,1.29,-10.19,-10.63,0,*73
1508565794.87,19810,14.19,73838.8,1.27,-10.31,-10.71,0,*7C
1508565796.13,19811,14.19,73838.8,1.29,-10.19,-10.71,0,*79
1508565797.32,19812,14.25,73842.5,1.27,-10.05,-10.49,0,*72
1508565798.53,19813,14.25,73846.0,1.27,-10.15,-10.49,0,*72
1508565799.74,19814,14.25,73844.3,1.27,-10.15,-10.57,0,*7A
1508565800.97,19815,14.25,73842.8,1.27,-10.19,-10.63,0,*70
1508565802.22,19816,14.19,73838.3,1.29,-10.27,-10.71,0,*73
1508565803.46,19817,14.19,73834.5,1.27,-10.19,-10.63,0,*72
1508565804.69,19818,14.19,73830.3,1.27,-10.27,-10.71,0,*73
1508565805.94,19819,14.19,73826.5,1.29,-10.31,-10.71,0,*7B
1508565807.17,19820,14.19,73828.8,1.29,-10.19,-10.57,0,*7F
1508565808.4,19821,14.25,73834.0,1.27,-10.31,-10.71,0,*7E
1508565809.63,19822,14.19,73832.5,1.27,-10.27,-10.63,0,*79
1508565810.86,19823,14.19,73834.5,1.27,-10.27,-10.71,0,*7B
1508565812.12,19824,14.25,73838.0,1.29,-10.35,-10.63,0,*72
1508565813.35,19825,14.19,73836.5,1.27,-10.31,-10.63,0,*79
1508565814.56,19826,14.25,73842.3,1.27,-10.19,-10.57,0,*77
1508565815.76,19827,14.19,73842.8,1.27,-10.27,-10.49,0,*74
1508565816.97,19828,14.19,73844.3,1.27,-10.19,-10.49,0,*76
1508565818.18,19829,14.25,73846.5,1.27,-10.19,-10.49,0,*77
1508565819.38,19830,14.25,73844.5,1.27,-10.27,-10.49,0,*72
1508565820.61,19831,14.25,73844.5,1.29,-10.27,-10.49,0,*7D
1508565821.84,19832,14.19,73842.3,1.29,-10.27,-10.49,0,*7E
1508565823.07,19833,14.25,73844.8,1.29,-10.27,-10.49,0,*7F
1508565824.3,19834,14.25,73846.8,1.29,-10.19,-10.57,0,*7A
1508565825.53,19835,14.19,73844.8,1.29,-10.19,-10.49,0,*74
1508565826.77,19836,14.25,73846.0,1.29,-10.19,-10.49,0,*77
1508565828.0,19837,14.25,73844.8,1.29,-10.19,-10.49,0,*76
1508565829.23,19838,14.25,73846.3,1.29,-10.19,-10.57,0,*76
1508565830.44,19839,14.25,73844.3,1.27,-10.19,-10.49,0,*76
1508565831.67,19840,14.25,73846.5,1.29,-10.27,-10.57,0,*74
1508565832.9,19841,14.25,73844.5,1.29,-10.19,-10.49,0,*77
1508565834.13,19842,14.19,73842.5,1.29,-10.19,-10.45,0,*78
1508565835.36,19843,14.19,73846.0,1.29,-10.19,-10.49,0,*75
1508565836.59,19844,14.25,73850.3,1.29,-10.27,-10.49,0,*7F
1508565837.85,19845,14.19,73850.0,1.29,-10.27,-10.63,0,*76
1508565839.11,19846,14.25,73854.3,1.29,-10.35,-10.75,0,*71
1508565840.34,19847,14.19,73850.8,1.27,-10.31,-10.63,0,*7D
1508565841.6,19848,14.19,73850.5,1.29,-10.35,-10.75,0,*7F
1508565842.83,19849,14.19,73850.0,1.27,-10.35,-10.63,0,*77
1508565844.06,19850,14.25,73852.5,1.27,-10.31,-10.63,0,*7B
1508565845.3,19851,14.19,73854.3,1.27,-10.35,-10.63,0,*7E
1508565846.5,19852,14.25,73854.5,1.27,-10.31,-10.57,0,*7E
1508565847.71,19853,14.25,73852.3,1.27,-10.31,-10.57,0,*7F
1508565848.92,19854,14.19,73850.3,1.27,-10.35,-10.57,0,*7C
1508565850.15,19855,14.19,73848.3,1.27,-10.31,-10.63,0,*7E
1508565851.38,19856,14.19,73846.0,1.27,-10.27,-10.63,0,*7A
1508565852.58,19857,14.25,73848.5,1.27,-10.27,-10.57,0,*7C
1508565853.79,19858,14.19,73848.8,1.27,-10.27,-10.57,0,*73
1508565855.0,19859,14.19,73846.3,1.27,-10.19,-10.49,0,*70
1508565856.23,19860,14.19,73846.0,1.27,-10.19,-10.63,0,*72
1508565857.44,19861,14.25,73848.8,1.27,-10.15,-10.57,0,*78
1508565858.64,19862,14.19,73850.0,1.27,-10.05,-10.49,0,*75
1508565859.84,19863,14.25,73850.8,1.27,-10.15,-10.49,0,*75
1508565861.05,19864,14.19,73848.8,1.27,-10.19,-10.57,0,*71
1508565862.25,19865,14.25,73848.3,1.27,-10.05,-10.49,0,*72
1508565863.45,19866,14.25,73848.8,1.27,-10.05,-10.49,0,*71
1508565864.65,19867,14.25,73850.3,1.27,-10.15,-10.45,0,*7D
1508565865.86,19868,14.19,73848.3,1.27,-10.15,-10.49,0,*7E
1508565867.07,19869,14.25,73848.0,1.27,-10.15,-10.57,0,*70
1508565868.27,19870,14.19,73848.5,1.27,-10.05,-10.49,0,*76
1508565869.46,19871,14.25,73848.0,1.27,-10.05,-10.57,0,*78
1508565870.67,19872,14.25,73852.0,1.27,-10.15,-10.49,0,*75
1508565871.88,19873,14.25,73850.3,1.27,-10.15,-10.49,0,*74
1508565873.11,19874,14.19,73844.5,1.29,-10.15,-10.45,0,*71
1508565874.31,19875,14.25,73852.3,1.27,-10.05,-10.49,0,*73
1508565875.5,19876,14.19,73848.3,1.27,-10.05,-10.45,0,*7C
1508565876.72,19877,14.25,73850.8,1.27,-10.15,-10.35,0,*7B
1508565877.94,19878,14.25,73854.0,1.25,-10.09,-10.53,0,*7B
1508565879.15,19879,14.25,73852.5,1.27,-10.15,-10.35,0,*75
1508565880.37,19880,14.25,73850.0,1.25,-10.09,-10.49,0,*77
1508565881.59,19881,14.19,73846.8,1.25,-10.09,-10.53,0,*7D
1508565882.84,19882,14.19,73840.8,1.25,-9.97,-10.41,0,*42
1508565884.09,19883,14.25,73846.3,1.25,-10.05,-10.41,0,*70
1508565885.29,19884,14.19,73846.3,1.27,-10.01,-10.45,0,*75
1508565886.49,19885,14.25,73844.3,1.27,-10.05,-10.45,0,*70
1508565887.71,19886,14.25,73842.5,1.25,-10.09,-10.49,0,*71
1508565888.93,19887,14.25,73842.5,1.25,-9.71,-10.31,0,*48
1508565890.16,19888,14.19,73840.5,1.25,-9.71,-10.31,0,*47
1508565891.37,19889,14.25,73846.3,1.27,-9.75,-10.27,0,*47
1508565892.57,19890,14.25,73842.5,1.27,-9.79,-10.31,0,*44
1508565893.79,19891,14.25,73848.0,1.29,-9.89,-10.31,0,*44
1508565894.99,19892,14.19,73846.3,1.27,-9.79,-10.31,0,*46
1508565896.18,19893,14.19,73838.3,1.27,-9.89,-10.31,0,*48
1508565897.38,19894,14.19,73834.3,1.27,-10.05,-10.45,0,*70
1508565898.58,19895,14.25,73840.5,1.27,-9.93,-10.35,0,*41
1508565899.81,19896,14.25,73838.8,1.29,-9.79,-10.35,0,*48
1508565901.01,19897,14.25,73840.8,1.27,-9.79,-10.31,0,*43
1508565902.23,19898,14.25,73834.8,1.29,-9.89,-10.31,0,*4D
1508565903.46,19899,14.19,73832.0,1.29,-10.01,-10.35,0,*70
1508565904.66,19900,14.25,73834.5,1.27,-9.93,-10.35,0,*4C
1508565905.87,19901,14.25,73838.3,1.27,-10.01,-10.35,0,*7E
1508565907.09,19902,14.25,73836.0,1.29,-9.93,-10.35,0,*40
1508565908.34,19903,14.25,73828.8,1.29,-9.61,-10.19,0,*42
1508565909.56,19904,14.25,73826.3,1.29,-9.79,-10.05,0,*41
1508565910.81,19905,14.19,73826.0,1.29,-9.49,-10.15,0,*42
1508565912.05,19906,14.19,73824.8,1.29,-9.49,-9.93,0,*77
1508565913.3,19907,14.25,73830.0,1.29,-9.53,-10.01,0,*4E
1508565914.53,19908,14.25,73834.5,1.27,-9.61,-10.19,0,*47
1508565915.75,19909,14.19,73828.0,1.29,-10.01,-10.31,0,*7C
1508565916.96,19910,14.25,73838.8,1.31,-10.01,-10.27,0,*7A
1508565918.18,19911,14.25,73836.0,1.31,-9.83,-10.23,0,*4D
1508565919.37,19912,14.25,73840.5,1.31,-9.89,-10.23,0,*44
1508565920.59,19913,14.19,73838.8,1.33,-9.75,-10.15,0,*41
1508565921.82,19914,14.19,73842.8,1.31,-9.61,-10.01,0,*44
1508565923.03,19915,14.25,73850.3,1.31,-9.71,-10.01,0,*44
1508565924.23,19916,14.25,73850.8,1.31,-9.75,-10.15,0,*46
1508565925.47,19917,14.25,73848.8,1.31,-9.49,-9.83,0,*7F
1508565926.68,19918,14.25,73850.0,1.31,-9.61,-9.89,0,*70
1508565927.89,19919,14.19,73846.0,1.31,-9.71,-10.01,0,*48
1508565929.11,19920,14.25,73840.0,1.33,-9.75,-9.97,0,*73
1508565930.33,19921,14.19,73836.8,1.33,-9.75,-10.01,0,*45
1508565931.56,19922,14.25,73838.0,1.33,-9.75,-10.15,0,*43
1508565932.78,19923,14.25,73840.0,1.33,-9.75,-10.23,0,*47
1508565933.99,19924,14.25,73836.8,1.31,-9.71,-10.15,0,*43
1508565935.23,19925,14.25,73840.3,1.33,-9.57,-10.15,0,*44
1508565936.44,19926,14.25,73840.3,1.31,-9.75,-10.27,0,*44
1508565937.67,19927,14.25,73838.8,1.33,-9.71,-10.31,0,*44
1508565938.91,19928,14.19,73838.0,1.33,-9.61,-10.31,0,*4A
1508565940.14,19929,14.19,73840.0,1.33,-9.71,-10.31,0,*4A
1508565941.37,19930,14.25,73846.8,1.33,-9.71,-10.31,0,*42
1508565942.63,19931,14.25,73846.0,1.33,-9.71,-10.41,0,*44
1508565943.87,19932,14.25,73852.5,1.31,-9.83,-10.41,0,*48
1508565945.12,19933,14.25,73850.0,1.33,-9.83,-10.31,0,*4C
1508565946.36,19934,14.25,73854.8,1.33,-9.83,-10.31,0,*4B
1508565947.61,19935,14.25,73856.0,1.33,-9.83,-10.27,0,*4D
1508565948.83,19936,14.25,73852.8,1.33,-9.75,-10.31,0,*40
1508565950.05,19937,14.25,73856.5,1.33,-9.97,-10.31,0,*4D
1508565951.29,19938,14.19,73854.8,1.33,-9.89,-10.41,0,*4A
1508565952.49,19939,14.25,73860.3,1.35,-9.93,-10.27,0,*46
1508565953.71,19940,14.25,73856.0,1.33,-9.97,-10.35,0,*49
1508565954.96,19941,14.25,73856.3,1.33,-9.97,-10.41,0,*4B
1508565956.17,19942,14.25,73850.8,1.33,-9.89,-10.31,0,*40
1508565957.39,19943,14.19,73850.8,1.33,-9.89,-10.31,0,*41
1508565958.6,19944,14.25,73852.8,1.33,-9.89,-10.31,0,*46
1508565959.85,19945,14.25,73852.0,1.33,-9.83,-10.31,0,*4D
1508565961.07,19946,14.25,73854.5,1.33,-9.97,-10.31,0,*4B
1508565962.26,19947,14.25,73854.5,1.31,-9.97,-10.31,0,*48
1508565963.49,19948,14.25,73850.5,1.33,-10.01,-10.45,0,*71
1508565964.74,19949,14.25,73852.0,1.33,-10.01,-10.41,0,*74
1508565965.96,19950,14.25,73852.0,1.33,-10.09,-10.31,0,*73
1508565967.21,19951,14.25,73852.0,1.33,-10.09,-10.41,0,*75
1508565968.43,19952,14.25,73848.3,1.33,-10.09,-10.45,0,*72
1508565969.66,19953,14.25,73850.3,1.33,-10.01,-10.31,0,*78
1508565970.91,19954,14.25,73850.3,1.33,-10.01,-10.41,0,*78
1508565972.16,19955,14.25,73848.8,1.33,-9.61,-10.01,0,*43
1508565973.39,19956,14.25,73852.8,1.33,-9.71,-10.15,0,*44
1508565974.62,19957,14.25,73854.8,1.33,-9.71,-10.15,0,*45
1508565975.84,19958,14.25,73848.8,1.33,-9.75,-10.23,0,*4B
1508565977.08,19959,14.19,73850.3,1.33,-9.83,-10.23,0,*43
1508565978.32,19960,14.25,73848.8,1.33,-9.57,-10.09,0,*48
1508565979.52,19961,14.25,73848.3,1.35,-9.79,-10.19,0,*42
1508565980.75,19962,14.25,73844.8,1.37,-10.01,-10.31,0,*7E
1508565981.97,19963,14.19,73840.8,1.35,-9.97,-10.41,0,*4D
1508565983.16,19964,14.25,73844.0,1.35,-9.97,-10.27,0,*4A
1508565984.39,19965,14.19,73842.5,1.37,-10.01,-10.35,0,*7D
1508565985.61,19966,14.25,73844.8,1.35,-9.97,-10.41,0,*48
1508565986.81,19967,14.25,73844.3,1.35,-10.05,-10.35,0,*79
1508565988.04,19968,14.25,73844.0,1.35,-10.05,-10.41,0,*75
1508565989.23,19969,14.25,73844.8,1.35,-10.05,-10.27,0,*74
1508565990.46,19970,14.25,73844.3,1.37,-10.01,-10.31,0,*7D
1508565991.71,19971,14.25,73844.3,1.33,-10.09,-10.41,0,*77
1508565992.93,19972,14.25,73846.8,1.33,-10.23,-10.53,0,*7F
1508565994.16,19973,14.25,73846.5,1.33,-10.15,-10.53,0,*7B
1508565995.4,19974,14.25,73846.3,1.33,-10.15,-10.45,0,*7B
1508565996.61,19975,14.25,73844.8,1.33,-9.89,-10.31,0,*44
1508565997.81,19976,14.19,73840.8,1.35,-9.79,-10.19,0,*44
1508565999.03,19977,14.25,73842.0,1.35,-9.83,-10.19,0,*40
1508566000.25,19978,14.25,73846.5,1.35,-9.83,-10.23,0,*46
1508566001.47,19979,14.25,73844.3,1.37,-9.93,-10.19,0,*4D
1508566002.67,19980,14.25,73844.0,1.35,-9.97,-10.35,0,*43
1508566003.86,19981,14.25,73844.5,1.35,-10.05,-10.35,0,*71
1508566005.06,19982,14.25,73846.3,1.35,-10.05,-10.35,0,*72
1508566006.26,19983,14.25,73850.0,1.35,-10.05,-10.49,0,*78
1508566007.45,19984,14.25,73846.8,1.35,-10.05,-10.45,0,*73
1508566008.65,19985,14.25,73850.3,1.35,-10.09,-10.49,0,*72
1508566009.85,19986,14.25,73840.5,1.35,-10.19,-10.49,0,*70
1508566011.05,19987,14.25,73842.3,1.35,-10.09,-10.49,0,*70
1508566012.27,19988,14.25,73842.8,1.33,-10.23,-10.53,0,*7A
1508566013.5,19989,14.25,73850.0,1.33,-10.15,-10.45,0,*79
1508566014.73,19990,14.19,73844.8,1.35,-10.09,-10.41,0,*7E
1508566015.92,19991,14.25,73846.5,1.35,-10.09,-10.49,0,*77
1508566017.11,19992,14.25,73848.5,1.35,-10.05,-10.49,0,*78
1508566018.34,19993,14.25,73848.0,1.33,-10.15,-10.53,0,*75
1508566019.57,19994,14.25,73848.0,1.33,-10.15,-10.53,0,*72
1508566020.8,19995,14.25,73848.8,1.33,-10.15,-10.53,0,*73
1508566022.03,19996,14.19,73844.3,1.33,-10.15,-10.53,0,*70
1508566023.24,19997,14.19,73846.8,1.31,-10.27,-10.57,0,*76
1508566024.51,19998,14.25,73844.3,1.33,-10.41,-10.71,0,*7F
1508566025.77,19999,14.19,73846.0,1.33,-10.31,-10.67,0,*7E
1508566027.05,20000,14.19,73840.3,1.33,-10.41,-10.79,0,*75
1508566028.28,20001,14.25,73846.3,1.31,-10.31,-10.79,0,*71
1508566029.56,20002,14.25,73840.5,1.33,-10.41,-10.71,0,*7F
1508566030.81,20003,14.25,73840.3,1.31,-10.41,-10.71,0,*7C
1508566032.09,20004,14.25,73844.5,1.33,-10.41,-10.71,0,*79
1508566033.32,20005,14.25,73840.5,1.31,-10.31,-10.79,0,*75
1508566034.57,20006,14.25,73842.8,1.33,-10.31,-10.71,0,*7C
1508566035.81,20007,14.25,73844.8,1.31,-10.27,-10.67,0,*7F
1508566037.06,20008,14.25,73848.5,1.33,-10.27,-10.71,0,*75
1508566038.31,20009,14.25,73846.3,1.33,-10.31,-10.79,0,*7B
1508566039.57,20010,14.25,73846.3,1.33,-10.31,-10.79,0,*73
1508566040.82,20011,14.25,73844.3,1.31,-10.41,-10.79,0,*77
1508566042.1,20012,14.25,73850.0,1.33,-10.41,-10.71,0,*7E
1508566043.35,20013,14.25,73850.3,1.31,-10.41,-10.71,0,*7D
1508566044.58,20014,14.25,73848.5,1.31,-10.31,-10.71,0,*7D
1508566045.79,20015,14.25,73850.0,1.31,-10.31,-10.57,0,*78
1508566047.02,20016,14.25,73846.5,1.31,-10.27,-10.67,0,*7F
1508566048.23,20017,14.25,73846.3,1.31,-10.27,-10.57,0,*7D
1508566049.43,20018,14.25,73844.3,1.31,-10.31,-10.53,0,*71
1508566050.64,20019,14.19,73846.5,1.31,-10.27,-10.53,0,*77
1508566051.86,20020,14.25,73850.0,1.33,-10.27,-10.53,0,*7F
1508566053.09,20021,14.25,73844.3,1.33,-10.27,-10.57,0,*7A
1508566054.32,20022,14.25,73848.5,1.33,-10.27,-10.45,0,*7A
1508566055.53,20023,14.25,73854.5,1.31,-10.15,-10.45,0,*78
1508566056.73,20024,14.25,73856.0,1.31,-10.23,-10.45,0,*7A
1508566057.94,20025,14.19,73852.3,1.31,-10.27,-10.53,0,*78
1508566059.16,20026,14.25,73854.3,1.33,-10.27,-10.53,0,*79
1508566060.37,20027,14.25,73852.0,1.31,-10.27,-10.45,0,*7D
1508566061.57,20028,14.25,73854.8,1.31,-10.27,-10.45,0,*72
1508566062.8,20029,14.25,73848.0,1.33,-10.23,-10.53,0,*72
1508566064.0,20030,14.25,73846.5,1.31,-10.27,-10.53,0,*7C
1508566065.21,20031,14.25,73844.0,1.31,-10.27,-10.53,0,*7D
1508566066.41,20032,14.25,73848.0,1.31,-10.23,-10.53,0,*7A
1508566067.62,20033,14.25,73844.5,1.31,-10.31,-10.53,0,*78
1508566068.85,20034,14.19,73842.0,1.31,-10.23,-10.41,0,*7F
1508566070.06,20035,14.25,73842.3,1.31,-10.15,-10.31,0,*7C
1508566071.26,20036,14.19,73840.8,1.31,-10.09,-10.27,0,*75
1508566072.46,20037,14.25,73844.5,1.31,-10.09,-10.31,0,*73
1508566073.69,20038,14.25,73846.8,1.33,-10.09,-10.27,0,*79
1508566074.88,20039,14.25,73846.8,1.31,-9.75,-10.09,0,*45
1508566076.11,20040,14.25,73852.3,1.31,-9.61,-10.01,0,*46
1508566077.32,20041,14.25,73850.0,1.31,-9.71,-10.01,0,*46
1508566078.54,20042,14.25,73852.8,1.33,-9.75,-10.01,0,*43
1508566079.76,20043,14.19,73850.3,1.33,-9.75,-10.09,0,*4A
1508566080.96,20044,14.25,73858.8,1.31,-9.75,-10.09,0,*4F
1508566082.18,20045,14.25,73856.8,1.35,-9.83,-10.19,0,*42
1508566083.37,20046,14.25,73856.0,1.35,-9.93,-10.23,0,*49
1508566084.56,20047,14.25,73858.5,1.35,-9.93,-10.23,0,*48
1508566085.78,20048,14.25,73858.3,1.37,-9.93,-10.19,0,*4C
1508566086.98,20049,14.25,73854.3,1.35,-10.05,-10.23,0,*71
1508566088.19,20050,14.25,73854.0,1.35,-10.19,-10.35,0,*73
1508566089.39,20051,14.25,73852.0,1.35,-10.09,-10.27,0,*70
1508566090.58,20052,14.25,73854.0,1.35,-9.97,-10.23,0,*48
1508566091.77,20053,14.25,73852.8,1.35,-9.93,-10.19,0,*44
1508566092.97,20054,14.19,73850.8,1.35,-9.93,-10.19,0,*43
1508566094.19,20055,14.19,73850.3,1.33,-10.09,-10.27,0,*72
1508566095.42,20056,14.25,73856.8,1.33,-10.09,-10.27,0,*71
1508566096.61,20057,14.25,73856.0,1.35,-10.05,-10.23,0,*7E
1508566097.8,20058,14.25,73858.3,1.35,-9.97,-10.23,0,*42
1508566099.02,20059,14.25,73858.3,1.37,-9.93,-10.15,0,*40
1508566100.22,20060,14.25,73854.5,1.35,-9.97,-10.19,0,*40